Weather History for Fort Leonard Wood, MO

Change the Weather History Date:

Saturday, July 13, 2013

  Actual Average Record
Temperature  
Mean Temperature 70 °F -  
Max Temperature 82 °F 85 °F 98 °F (2004)
Min Temperature 57 °F 69 °F 57 °F (2013)
Cooling Degree Days 4    
Growing Degree Days 20 (Base 50)    
Moisture  
Dew Point 61 °F    
Average Humidity 72    
Maximum Humidity 99    
Minimum Humidity 52    
Precipitation  
Precipitation 0.00 in - - ()
Sea Level Pressure  
Sea Level Pressure 30.05 in    
Wind  
Wind Speed 6 mph (East)    
Max Wind Speed 8 mph    
Max Gust Speed -    
Visibility 10 miles    
Events      
Averages and records for this station are not official NWS values.
T = Trace of Precipitation, MM = Missing Value Source: NWS Daily Summary

Daily Weather History Graph

Daily Weather History Graph

Search for Another Location

Airport:

Trip Planner

Search our weather history database for the weather conditions in past years. The results will help you decide how hot, cold, wet, or windy it might be!

Date:

Astronomy

Jul. 13, 2013 Rise Set
Actual Time 5:57 AM CDT 8:30 PM CDT
Civil Twilight 5:27 AM CDT 9:01 PM CDT
Nautical Twilight 4:49 AM CDT 9:39 PM CDT
Astronomical Twilight 4:06 AM CDT 10:21 PM CDT
Moon 11:07 AM CDT (7/13) 11:19 PM CDT (7/13)
Length of Visible Light 15h 34m
Length of Day
14h 33m
Waxing Crescent, 26% of the Moon is Illuminated
Jul 13
Waxing Crescent
Jul 15
First Quarter
Jul 22
Full
Jul 29
Last Quarter
Aug 6
New

Hourly Weather History & Observations

Time (CDT) Temp. Heat Index Dew Point Humidity Pressure Visibility Wind Dir Wind Speed Gust Speed Precip Events Conditions
12:58 AM 66.9 °F - 59.9 °F 78% 30.04 in 10.0 mi ESE 6.9 mph - N/A   Clear
1:58 AM 63.1 °F - 59.5 °F 88% 30.04 in 10.0 mi SE 8.1 mph - N/A   Clear
2:58 AM 61.5 °F - 58.8 °F 91% 30.06 in 10.0 mi SSE 5.8 mph - N/A   Clear
3:58 AM 60.8 °F - 58.5 °F 92% 30.05 in 10.0 mi SSE 5.8 mph - N/A   Clear
4:58 AM 59.5 °F - 58.1 °F 95% 30.05 in 10.0 mi SSE 5.8 mph - N/A   Clear
5:58 AM 57.6 °F - 57.2 °F 99% 30.06 in 10.0 mi South 4.6 mph - N/A   Clear
6:58 AM 61.3 °F - 58.8 °F 91% 30.06 in 10.0 mi SE 2.3 mph - N/A   Clear
7:58 AM 66.6 °F - 59.5 °F 78% 30.08 in 10.0 mi SE 5.8 mph - N/A   Clear
8:58 AM 71.4 °F - 61.2 °F 70% 30.08 in 10.0 mi SE 5.8 mph - N/A   Clear
9:58 AM 76.3 °F - 60.6 °F 58% 30.08 in 10.0 mi SE 6.9 mph - N/A   Clear
10:58 AM 77.7 °F - 59.0 °F 52% 30.08 in 10.0 mi Calm Calm - N/A   Clear
11:58 AM 79.3 °F - 60.4 °F 52% 30.07 in 10.0 mi Variable 3.5 mph - N/A   Partly Cloudy
12:58 PM 80.6 °F 81.6 °F 61.3 °F 52% 30.06 in 10.0 mi Variable 4.6 mph - N/A   Scattered Clouds
1:58 PM 82.0 °F 83.1 °F 62.8 °F 52% 30.05 in 10.0 mi NNW 4.6 mph - N/A   Scattered Clouds
2:58 PM 80.8 °F 82.0 °F 63.0 °F 54% 30.04 in 10.0 mi North 4.6 mph - N/A   Partly Cloudy
3:58 PM 79.7 °F - 61.9 °F 54% 30.04 in 10.0 mi NNE 4.6 mph - N/A   Mostly Cloudy
4:58 PM 78.6 °F - 63.7 °F 60% 30.04 in 10.0 mi NNE 6.9 mph - N/A   Scattered Clouds
5:58 PM 77.5 °F - 67.6 °F 71% 30.02 in 10.0 mi North 4.6 mph - N/A   Overcast
6:58 PM 75.0 °F - 66.4 °F 74% 30.01 in 10.0 mi NNE 3.5 mph - N/A   Overcast
8:58 PM 72.1 °F - 64.4 °F 77% 30.01 in 10.0 mi ENE 5.8 mph - N/A   Clear
10:58 PM 70.2 °F - 61.7 °F 74% 30.04 in 10.0 mi East 3.5 mph - N/A   Clear